contact:dominique.lefevre@mio.osupytheas.fr, maurice.libes@osupytheas.fr, didier.mallarino@osupytheas.fr
Project:EMSO http://www.emso-fr.org/EMSO-France
Depth: 2436.0 m
Title:EMSO Ligure Ouest : Data MII capteur MICROCAT
DateTime_Computer,Latitude,Longitude,Temperature,Conductivity,Pressure,DateTime_Instrument
DateTime_Computer,Latitude,Longitude,degC,S m-1,dbar,DateTime_Instrument
2022-11-20T00:02:14Z,42.805,6.029,13.3009,4.60056,2470.6,2022-11-20T02:04:12Z
2022-11-20T00:05:17Z,42.805,6.029,13.3008,4.60059,2470.614,2022-11-20T02:07:15Z
2022-11-20T00:08:20Z,42.805,6.029,13.3005,4.60057,2470.637,2022-11-20T02:10:18Z
2022-11-20T00:11:23Z,42.805,6.029,13.3006,4.60057,2470.614,2022-11-20T02:13:21Z
2022-11-20T00:14:26Z,42.805,6.029,13.3009,4.60058,2470.637,2022-11-20T02:16:24Z
2022-11-20T00:17:29Z,42.805,6.029,13.3006,4.60059,2470.624,2022-11-20T02:19:28Z
2022-11-20T00:20:32Z,42.805,6.029,13.3008,4.60059,2470.637,2022-11-20T02:22:31Z
2022-11-20T00:23:35Z,42.805,6.029,13.3010,4.60054,2470.6,2022-11-20T02:25:34Z
2022-11-20T00:26:38Z,42.805,6.029,13.3006,4.60054,2470.637,2022-11-20T02:28:37Z
2022-11-20T00:29:41Z,42.805,6.029,13.3007,4.60057,2470.614,2022-11-20T02:31:40Z
2022-11-20T00:32:44Z,42.805,6.029,13.3008,4.60057,2470.624,2022-11-20T02:34:43Z
2022-11-20T00:35:47Z,42.805,6.029,13.3006,4.60055,2470.624,2022-11-20T02:37:46Z
2022-11-20T00:38:51Z,42.805,6.029,13.3008,4.60057,2470.6,2022-11-20T02:40:49Z
2022-11-20T00:41:54Z,42.805,6.029,13.3007,4.60057,2470.624,2022-11-20T02:43:52Z
2022-11-20T00:44:57Z,42.805,6.029,13.3009,4.60062,2470.637,2022-11-20T02:46:55Z
2022-11-20T00:48:00Z,42.805,6.029,13.3008,4.60059,2470.624,2022-11-20T02:49:58Z
2022-11-20T00:51:03Z,42.805,6.029,13.3006,4.60056,2470.646,2022-11-20T02:53:01Z
2022-11-20T00:54:06Z,42.805,6.029,13.3011,4.60059,2470.6,2022-11-20T02:56:04Z
2022-11-20T00:57:09Z,42.805,6.029,13.3004,4.60057,2470.624,2022-11-20T02:59:08Z
2022-11-20T01:00:12Z,42.805,6.029,13.3012,4.60056,2470.6,2022-11-20T03:02:11Z
2022-11-20T01:03:15Z,42.805,6.029,13.3006,4.60061,2470.646,2022-11-20T03:05:14Z
2022-11-20T01:06:18Z,42.805,6.029,13.3005,4.60057,2470.624,2022-11-20T03:08:17Z
2022-11-20T01:09:21Z,42.805,6.029,13.3007,4.60055,2470.637,2022-11-20T03:11:20Z
2022-11-20T01:12:24Z,42.805,6.029,13.3008,4.60056,2470.637,2022-11-20T03:14:23Z
2022-11-20T01:15:27Z,42.805,6.029,13.3009,4.60059,2470.646,2022-11-20T03:17:26Z
2022-11-20T01:18:31Z,42.805,6.029,13.3006,4.60058,2470.646,2022-11-20T03:20:29Z
2022-11-20T01:21:34Z,42.805,6.029,13.3008,4.60057,2470.661,2022-11-20T03:23:32Z
2022-11-20T01:24:37Z,42.805,6.029,13.3006,4.60056,2470.637,2022-11-20T03:26:35Z
2022-11-20T01:27:40Z,42.805,6.029,13.3006,4.60057,2470.67,2022-11-20T03:29:38Z
2022-11-20T01:30:43Z,42.805,6.029,13.3006,4.60055,2470.646,2022-11-20T03:32:41Z
2022-11-20T01:33:46Z,42.805,6.029,13.3009,4.60057,2470.661,2022-11-20T03:35:45Z
2022-11-20T01:36:49Z,42.805,6.029,13.3009,4.60055,2470.646,2022-11-20T03:38:48Z
2022-11-20T01:39:52Z,42.805,6.029,13.3009,4.60057,2470.67,2022-11-20T03:41:51Z
2022-11-20T01:42:55Z,42.805,6.029,13.3004,4.60055,2470.67,2022-11-20T03:44:54Z
2022-11-20T01:45:58Z,42.805,6.029,13.3005,4.60055,2470.67,2022-11-20T03:47:57Z
2022-11-20T01:49:01Z,42.805,6.029,13.3007,4.60057,2470.646,2022-11-20T03:51:00Z
2022-11-20T01:52:04Z,42.805,6.029,13.3006,4.60057,2470.624,2022-11-20T03:54:03Z
2022-11-20T01:55:08Z,42.805,6.029,13.3006,4.60057,2470.646,2022-11-20T03:57:06Z
2022-11-20T01:58:11Z,42.805,6.029,13.3007,4.60056,2470.646,2022-11-20T04:00:09Z
2022-11-20T02:01:14Z,42.805,6.029,13.3004,4.60055,2470.67,2022-11-20T04:03:12Z
2022-11-20T02:04:17Z,42.805,6.029,13.3008,4.60055,2470.67,2022-11-20T04:06:15Z
2022-11-20T02:07:20Z,42.805,6.029,13.3004,4.60057,2470.693,2022-11-20T04:09:18Z
2022-11-20T02:10:23Z,42.805,6.029,13.3007,4.60056,2470.684,2022-11-20T04:12:21Z
2022-11-20T02:13:26Z,42.805,6.029,13.3009,4.60057,2470.646,2022-11-20T04:15:25Z
2022-11-20T02:16:29Z,42.805,6.029,13.3004,4.60055,2470.693,2022-11-20T04:18:28Z
2022-11-20T02:19:32Z,42.805,6.029,13.3008,4.60057,2470.693,2022-11-20T04:21:31Z
2022-11-20T02:22:35Z,42.805,6.029,13.3007,4.60057,2470.67,2022-11-20T04:24:34Z
2022-11-20T02:25:38Z,42.805,6.029,13.3013,4.60055,2470.693,2022-11-20T04:27:37Z
2022-11-20T02:28:41Z,42.805,6.029,13.3011,4.60055,2470.67,2022-11-20T04:30:40Z
2022-11-20T02:31:44Z,42.805,6.029,13.3007,4.60057,2470.693,2022-11-20T04:33:43Z
2022-11-20T02:34:47Z,42.805,6.029,13.3004,4.60057,2470.707,2022-11-20T04:36:46Z
2022-11-20T02:37:51Z,42.805,6.029,13.3007,4.60058,2470.693,2022-11-20T04:39:49Z
2022-11-20T02:40:54Z,42.805,6.029,13.3005,4.60056,2470.67,2022-11-20T04:42:52Z
2022-11-20T02:43:57Z,42.805,6.029,13.3011,4.60058,2470.693,2022-11-20T04:45:55Z
2022-11-20T02:47:00Z,42.805,6.029,13.3007,4.60060,2470.707,2022-11-20T04:48:58Z
2022-11-20T02:50:03Z,42.805,6.029,13.3006,4.60057,2470.693,2022-11-20T04:52:01Z
2022-11-20T02:53:06Z,42.805,6.029,13.3008,4.60057,2470.693,2022-11-20T04:55:05Z
2022-11-20T02:56:09Z,42.805,6.029,13.3010,4.60054,2470.707,2022-11-20T04:58:08Z
2022-11-20T02:59:12Z,42.805,6.029,13.3007,4.60057,2470.67,2022-11-20T05:01:11Z
2022-11-20T03:02:15Z,42.805,6.029,13.3009,4.60056,2470.693,2022-11-20T05:04:14Z
2022-11-20T03:05:18Z,42.805,6.029,13.3006,4.60059,2470.693,2022-11-20T05:07:17Z
2022-11-20T03:08:21Z,42.805,6.029,13.3007,4.60055,2470.693,2022-11-20T05:10:20Z
2022-11-20T03:11:24Z,42.805,6.029,13.3008,4.60056,2470.693,2022-11-20T05:13:23Z
2022-11-20T03:14:28Z,42.805,6.029,13.3005,4.60056,2470.74,2022-11-20T05:16:26Z
2022-11-20T03:17:31Z,42.805,6.029,13.3010,4.60055,2470.693,2022-11-20T05:19:29Z
2022-11-20T03:20:34Z,42.805,6.029,13.3009,4.60057,2470.717,2022-11-20T05:22:32Z
2022-11-20T03:23:37Z,42.805,6.029,13.3008,4.60058,2470.693,2022-11-20T05:25:35Z
2022-11-20T03:26:40Z,42.805,6.029,13.3006,4.60058,2470.693,2022-11-20T05:28:38Z
2022-11-20T03:29:43Z,42.805,6.029,13.3009,4.60055,2470.707,2022-11-20T05:31:42Z
2022-11-20T03:32:46Z,42.805,6.029,13.3006,4.60056,2470.703,2022-11-20T05:34:45Z
2022-11-20T03:35:49Z,42.805,6.029,13.3005,4.60056,2470.693,2022-11-20T05:37:48Z
2022-11-20T03:38:52Z,42.805,6.029,13.3007,4.60057,2470.73,2022-11-20T05:40:51Z
2022-11-20T03:41:55Z,42.805,6.029,13.3006,4.60055,2470.717,2022-11-20T05:43:54Z
2022-11-20T03:44:58Z,42.805,6.029,13.3006,4.60057,2470.693,2022-11-20T05:46:57Z
2022-11-20T03:48:01Z,42.805,6.029,13.3006,4.60057,2470.73,2022-11-20T05:50:00Z
2022-11-20T03:51:04Z,42.805,6.029,13.3010,4.60055,2470.717,2022-11-20T05:53:03Z
2022-11-20T03:54:08Z,42.805,6.029,13.3008,4.60056,2470.73,2022-11-20T05:56:06Z
2022-11-20T03:57:11Z,42.805,6.029,13.3005,4.60056,2470.74,2022-11-20T05:59:09Z
2022-11-20T04:00:14Z,42.805,6.029,13.3009,4.60057,2470.717,2022-11-20T06:02:12Z
2022-11-20T04:03:17Z,42.805,6.029,13.3010,4.60056,2470.693,2022-11-20T06:05:15Z
2022-11-20T04:06:20Z,42.805,6.029,13.3010,4.60056,2470.717,2022-11-20T06:08:18Z
2022-11-20T04:09:23Z,42.805,6.029,13.3006,4.60056,2470.717,2022-11-20T06:11:21Z
2022-11-20T04:12:26Z,42.805,6.029,13.3009,4.60061,2470.768,2022-11-20T06:14:25Z
2022-11-20T04:15:29Z,42.805,6.029,13.3007,4.60055,2470.726,2022-11-20T06:17:28Z
2022-11-20T04:18:32Z,42.805,6.029,13.3008,4.60056,2470.763,2022-11-20T06:20:31Z
2022-11-20T04:21:35Z,42.805,6.029,13.3009,4.60059,2470.717,2022-11-20T06:23:34Z
2022-11-20T04:24:38Z,42.805,6.029,13.3004,4.60055,2470.73,2022-11-20T06:26:37Z
2022-11-20T04:27:41Z,42.805,6.029,13.3011,4.60060,2470.754,2022-11-20T06:29:40Z
2022-11-20T04:30:44Z,42.805,6.029,13.3009,4.60057,2470.693,2022-11-20T06:32:43Z
2022-11-20T04:33:48Z,42.805,6.029,13.3006,4.60055,2470.74,2022-11-20T06:35:46Z
2022-11-20T04:36:51Z,42.805,6.029,13.3006,4.60055,2470.693,2022-11-20T06:38:49Z
2022-11-20T04:39:54Z,42.805,6.029,13.3008,4.60057,2470.693,2022-11-20T06:41:52Z
2022-11-20T04:42:57Z,42.805,6.029,13.3006,4.60057,2470.707,2022-11-20T06:44:55Z
2022-11-20T04:46:00Z,42.805,6.029,13.3006,4.60057,2470.777,2022-11-20T06:47:58Z
2022-11-20T04:49:03Z,42.805,6.029,13.3007,4.60057,2470.693,2022-11-20T06:51:02Z
2022-11-20T04:52:06Z,42.805,6.029,13.3008,4.60059,2470.717,2022-11-20T06:54:05Z
2022-11-20T04:55:09Z,42.805,6.029,13.3007,4.60054,2470.73,2022-11-20T06:57:08Z
2022-11-20T04:58:12Z,42.805,6.029,13.3006,4.60054,2470.717,2022-11-20T07:00:11Z
2022-11-20T05:01:15Z,42.805,6.029,13.3006,4.60056,2470.717,2022-11-20T07:03:14Z
2022-11-20T05:04:18Z,42.805,6.029,13.3007,4.60054,2470.73,2022-11-20T07:06:17Z
2022-11-20T05:07:21Z,42.805,6.029,13.3006,4.60053,2470.74,2022-11-20T07:09:20Z
2022-11-20T05:10:24Z,42.805,6.029,13.3006,4.60057,2470.74,2022-11-20T07:12:23Z
2022-11-20T05:13:28Z,42.805,6.029,13.3010,4.60054,2470.717,2022-11-20T07:15:26Z
2022-11-20T05:16:31Z,42.805,6.029,13.3006,4.60054,2470.74,2022-11-20T07:18:29Z
2022-11-20T05:19:34Z,42.805,6.029,13.3009,4.60055,2470.74,2022-11-20T07:21:32Z
2022-11-20T05:22:37Z,42.805,6.029,13.3005,4.60054,2470.717,2022-11-20T07:24:35Z
2022-11-20T05:25:40Z,42.805,6.029,13.3008,4.60055,2470.717,2022-11-20T07:27:38Z
2022-11-20T05:28:43Z,42.805,6.029,13.3005,4.60058,2470.73,2022-11-20T07:30:42Z
2022-11-20T05:31:46Z,42.805,6.029,13.3006,4.60057,2470.74,2022-11-20T07:33:45Z
2022-11-20T05:34:49Z,42.805,6.029,13.3006,4.60056,2470.74,2022-11-20T07:36:48Z
2022-11-20T05:37:52Z,42.805,6.029,13.3007,4.60054,2470.717,2022-11-20T07:39:51Z
2022-11-20T05:40:55Z,42.805,6.029,13.3009,4.60057,2470.717,2022-11-20T07:42:54Z
2022-11-20T05:43:58Z,42.805,6.029,13.3007,4.60052,2470.74,2022-11-20T07:45:57Z
2022-11-20T05:47:01Z,42.805,6.029,13.3007,4.60054,2470.707,2022-11-20T07:49:00Z
2022-11-20T05:50:05Z,42.805,6.029,13.3010,4.60058,2470.693,2022-11-20T07:52:03Z
2022-11-20T05:53:08Z,42.805,6.029,13.3008,4.60057,2470.707,2022-11-20T07:55:06Z
2022-11-20T05:56:11Z,42.805,6.029,13.3008,4.60054,2470.717,2022-11-20T07:58:09Z
2022-11-20T05:59:14Z,42.805,6.029,13.3009,4.60056,2470.717,2022-11-20T08:01:12Z
2022-11-20T06:02:17Z,42.805,6.029,13.3004,4.60057,2470.754,2022-11-20T08:04:15Z
2022-11-20T06:05:20Z,42.805,6.029,13.3008,4.60057,2470.717,2022-11-20T08:07:18Z
2022-11-20T06:08:23Z,42.805,6.029,13.3006,4.60058,2470.693,2022-11-20T08:10:22Z
2022-11-20T06:11:26Z,42.805,6.029,13.3008,4.60056,2470.693,2022-11-20T08:13:25Z
2022-11-20T06:14:29Z,42.805,6.029,13.3005,4.60059,2470.717,2022-11-20T08:16:28Z
2022-11-20T06:17:32Z,42.805,6.029,13.3006,4.60055,2470.717,2022-11-20T08:19:31Z
2022-11-20T06:20:35Z,42.805,6.029,13.3008,4.60055,2470.754,2022-11-20T08:22:34Z
2022-11-20T06:23:38Z,42.805,6.029,13.3010,4.60055,2470.693,2022-11-20T08:25:37Z
2022-11-20T06:26:41Z,42.805,6.029,13.3011,4.60054,2470.74,2022-11-20T08:28:40Z
2022-11-20T06:29:45Z,42.805,6.029,13.3009,4.60055,2470.763,2022-11-20T08:31:43Z
2022-11-20T06:32:48Z,42.805,6.029,13.3006,4.60054,2470.717,2022-11-20T08:34:46Z
2022-11-20T06:35:51Z,42.805,6.029,13.3008,4.60054,2470.73,2022-11-20T08:37:49Z
2022-11-20T06:38:54Z,42.805,6.029,13.3006,4.60053,2470.693,2022-11-20T08:40:52Z
2022-11-20T06:41:57Z,42.805,6.029,13.3008,4.60053,2470.717,2022-11-20T08:43:55Z
2022-11-20T06:45:00Z,42.805,6.029,13.3008,4.60053,2470.693,2022-11-20T08:46:59Z
2022-11-20T06:48:03Z,42.805,6.029,13.3008,4.60053,2470.717,2022-11-20T08:50:02Z
2022-11-20T06:51:06Z,42.805,6.029,13.3007,4.60055,2470.707,2022-11-20T08:53:05Z
2022-11-20T06:54:09Z,42.805,6.029,13.3006,4.60058,2470.717,2022-11-20T08:56:08Z
2022-11-20T06:57:12Z,42.805,6.029,13.3008,4.60057,2470.679,2022-11-20T08:59:11Z
2022-11-20T07:00:15Z,42.805,6.029,13.3007,4.60055,2470.717,2022-11-20T09:02:14Z
2022-11-20T07:03:18Z,42.805,6.029,13.3006,4.60057,2470.74,2022-11-20T09:05:17Z
2022-11-20T07:06:21Z,42.805,6.029,13.3006,4.60054,2470.67,2022-11-20T09:08:20Z
2022-11-20T07:09:25Z,42.805,6.029,13.3009,4.60054,2470.717,2022-11-20T09:11:23Z
2022-11-20T07:12:28Z,42.805,6.029,13.3009,4.60052,2470.693,2022-11-20T09:14:26Z
2022-11-20T07:15:31Z,42.805,6.029,13.3011,4.60059,2470.693,2022-11-20T09:17:29Z
2022-11-20T07:18:34Z,42.805,6.029,13.3006,4.60057,2470.707,2022-11-20T09:20:32Z
2022-11-20T07:21:37Z,42.805,6.029,13.3004,4.60054,2470.717,2022-11-20T09:23:35Z
2022-11-20T07:24:40Z,42.805,6.029,13.3011,4.60054,2470.717,2022-11-20T09:26:39Z
2022-11-20T07:27:43Z,42.805,6.029,13.3005,4.60056,2470.707,2022-11-20T09:29:42Z
2022-11-20T07:30:46Z,42.805,6.029,13.3007,4.60056,2470.707,2022-11-20T09:32:45Z
2022-11-20T07:33:49Z,42.805,6.029,13.3010,4.60059,2470.693,2022-11-20T09:35:48Z
2022-11-20T07:36:52Z,42.805,6.029,13.3006,4.60055,2470.73,2022-11-20T09:38:51Z
2022-11-20T07:39:55Z,42.805,6.029,13.3010,4.60056,2470.661,2022-11-20T09:41:54Z
2022-11-20T07:42:58Z,42.805,6.029,13.3011,4.60054,2470.707,2022-11-20T09:44:57Z
2022-11-20T07:46:01Z,42.805,6.029,13.3008,4.60057,2470.67,2022-11-20T09:48:00Z
2022-11-20T07:49:05Z,42.805,6.029,13.3009,4.60052,2470.73,2022-11-20T09:51:03Z
2022-11-20T07:52:08Z,42.805,6.029,13.3010,4.60057,2470.67,2022-11-20T09:54:06Z
2022-11-20T07:55:11Z,42.805,6.029,13.3009,4.60056,2470.67,2022-11-20T09:57:09Z
2022-11-20T07:58:14Z,42.805,6.029,13.3003,4.60057,2470.67,2022-11-20T10:00:12Z
2022-11-20T08:01:17Z,42.805,6.029,13.3010,4.60052,2470.67,2022-11-20T10:03:15Z
2022-11-20T08:04:20Z,42.805,6.029,13.3008,4.60052,2470.624,2022-11-20T10:06:19Z
2022-11-20T08:07:23Z,42.805,6.029,13.3006,4.60053,2470.693,2022-11-20T10:09:22Z
2022-11-20T08:10:26Z,42.805,6.029,13.3009,4.60054,2470.693,2022-11-20T10:12:25Z
2022-11-20T08:13:29Z,42.805,6.029,13.3006,4.60053,2470.684,2022-11-20T10:15:28Z
2022-11-20T08:16:32Z,42.805,6.029,13.3010,4.60054,2470.67,2022-11-20T10:18:31Z
2022-11-20T08:19:35Z,42.805,6.029,13.3009,4.60053,2470.67,2022-11-20T10:21:34Z
2022-11-20T08:22:38Z,42.805,6.029,13.3007,4.60055,2470.693,2022-11-20T10:24:37Z
2022-11-20T08:25:42Z,42.805,6.029,13.3006,4.60054,2470.707,2022-11-20T10:27:40Z
2022-11-20T08:28:45Z,42.805,6.029,13.3009,4.60054,2470.684,2022-11-20T10:30:43Z
2022-11-20T08:31:48Z,42.805,6.029,13.3011,4.60053,2470.717,2022-11-20T10:33:46Z
2022-11-20T08:34:51Z,42.805,6.029,13.3006,4.60054,2470.646,2022-11-20T10:36:49Z
2022-11-20T08:37:54Z,42.805,6.029,13.3005,4.60057,2470.67,2022-11-20T10:39:52Z
2022-11-20T08:40:57Z,42.805,6.029,13.3014,4.60054,2470.684,2022-11-20T10:42:56Z
2022-11-20T08:44:00Z,42.805,6.029,13.3006,4.60056,2470.67,2022-11-20T10:45:59Z
2022-11-20T08:47:03Z,42.805,6.029,13.3006,4.60057,2470.684,2022-11-20T10:49:02Z
2022-11-20T08:50:06Z,42.805,6.029,13.3004,4.60056,2470.646,2022-11-20T10:52:05Z
2022-11-20T08:53:09Z,42.805,6.029,13.3004,4.60056,2470.646,2022-11-20T10:55:08Z
2022-11-20T08:56:12Z,42.805,6.029,13.3003,4.60055,2470.684,2022-11-20T10:58:11Z
2022-11-20T08:59:15Z,42.805,6.029,13.3008,4.60053,2470.661,2022-11-20T11:01:14Z
2022-11-20T09:02:19Z,42.805,6.029,13.3008,4.60054,2470.67,2022-11-20T11:04:17Z
2022-11-20T09:05:22Z,42.805,6.029,13.3009,4.60053,2470.684,2022-11-20T11:07:20Z
2022-11-20T09:08:25Z,42.805,6.029,13.3009,4.60054,2470.67,2022-11-20T11:10:23Z
2022-11-20T09:11:28Z,42.805,6.029,13.3008,4.60053,2470.67,2022-11-20T11:13:26Z
2022-11-20T09:14:31Z,42.805,6.029,13.3005,4.60055,2470.67,2022-11-20T11:16:29Z
2022-11-20T09:17:34Z,42.805,6.029,13.3006,4.60055,2470.646,2022-11-20T11:19:33Z
2022-11-20T09:20:37Z,42.805,6.029,13.3008,4.60054,2470.67,2022-11-20T11:22:36Z
2022-11-20T09:23:40Z,42.805,6.029,13.3004,4.60064,2470.646,2022-11-20T11:25:39Z
2022-11-20T09:26:43Z,42.805,6.029,13.3006,4.60054,2470.661,2022-11-20T11:28:42Z
2022-11-20T09:29:46Z,42.805,6.029,13.3006,4.60054,2470.67,2022-11-20T11:31:45Z
2022-11-20T09:32:49Z,42.805,6.029,13.3006,4.60057,2470.67,2022-11-20T11:34:48Z
2022-11-20T09:35:52Z,42.805,6.029,13.3006,4.60054,2470.646,2022-11-20T11:37:51Z
2022-11-20T09:38:56Z,42.805,6.029,13.3004,4.60052,2470.661,2022-11-20T11:40:54Z
2022-11-20T09:41:59Z,42.805,6.029,13.3009,4.60054,2470.646,2022-11-20T11:43:57Z
2022-11-20T09:45:02Z,42.805,6.029,13.3006,4.60057,2470.67,2022-11-20T11:47:00Z
2022-11-20T09:48:05Z,42.805,6.029,13.3005,4.60055,2470.684,2022-11-20T11:50:03Z
2022-11-20T09:51:08Z,42.805,6.029,13.3009,4.60053,2470.646,2022-11-20T11:53:06Z
2022-11-20T09:54:11Z,42.805,6.029,13.3009,4.60053,2470.693,2022-11-20T11:56:10Z
2022-11-20T09:57:14Z,42.805,6.029,13.3001,4.60052,2470.684,2022-11-20T11:59:13Z
2022-11-20T10:00:17Z,42.805,6.029,13.3008,4.60059,2470.624,2022-11-20T12:02:16Z
2022-11-20T10:03:20Z,42.805,6.029,13.3006,4.60062,2470.646,2022-11-20T12:05:19Z
2022-11-20T10:06:23Z,42.805,6.029,13.3008,4.60057,2470.646,2022-11-20T12:08:22Z
2022-11-20T10:09:26Z,42.805,6.029,13.3004,4.60052,2470.646,2022-11-20T12:11:25Z
2022-11-20T10:12:29Z,42.805,6.029,13.3009,4.60052,2470.646,2022-11-20T12:14:28Z
2022-11-20T10:15:32Z,42.805,6.029,13.3009,4.60057,2470.624,2022-11-20T12:17:31Z
2022-11-20T10:18:36Z,42.805,6.029,13.3006,4.60057,2470.637,2022-11-20T12:20:34Z
2022-11-20T10:21:39Z,42.805,6.029,13.3010,4.60052,2470.646,2022-11-20T12:23:37Z
2022-11-20T10:24:42Z,42.805,6.029,13.3006,4.60054,2470.646,2022-11-20T12:26:40Z
2022-11-20T10:27:45Z,42.805,6.029,13.3008,4.60055,2470.637,2022-11-20T12:29:43Z
2022-11-20T10:30:48Z,42.805,6.029,13.3007,4.60053,2470.684,2022-11-20T12:32:47Z
2022-11-20T10:33:51Z,42.805,6.029,13.3010,4.60054,2470.693,2022-11-20T12:35:50Z
2022-11-20T10:36:54Z,42.805,6.029,13.3009,4.60063,2470.6,2022-11-20T12:38:53Z
2022-11-20T10:39:57Z,42.805,6.029,13.3007,4.60056,2470.646,2022-11-20T12:41:56Z
2022-11-20T10:43:00Z,42.805,6.029,13.3009,4.60055,2470.67,2022-11-20T12:44:59Z
2022-11-20T10:46:03Z,42.805,6.029,13.3011,4.60058,2470.646,2022-11-20T12:48:02Z
2022-11-20T10:49:06Z,42.805,6.029,13.3011,4.60068,2470.624,2022-11-20T12:51:05Z
2022-11-20T10:52:09Z,42.805,6.029,13.3010,4.60058,2470.624,2022-11-20T12:54:08Z
2022-11-20T10:55:13Z,42.805,6.029,13.3009,4.60062,2470.67,2022-11-20T12:57:11Z
2022-11-20T10:58:16Z,42.805,6.029,13.3010,4.60060,2470.646,2022-11-20T13:00:14Z
2022-11-20T11:01:19Z,42.805,6.029,13.3006,4.60061,2470.661,2022-11-20T13:03:17Z
2022-11-20T11:04:22Z,42.805,6.029,13.3006,4.60057,2470.661,2022-11-20T13:06:20Z
2022-11-20T11:07:25Z,42.805,6.029,13.3006,4.60056,2470.637,2022-11-20T13:09:23Z
2022-11-20T11:10:28Z,42.805,6.029,13.3008,4.60062,2470.624,2022-11-20T13:12:27Z
2022-11-20T11:13:31Z,42.805,6.029,13.3009,4.60059,2470.67,2022-11-20T13:15:30Z
2022-11-20T11:16:34Z,42.805,6.029,13.3008,4.60054,2470.661,2022-11-20T13:18:33Z
2022-11-20T11:19:37Z,42.805,6.029,13.3006,4.60058,2470.684,2022-11-20T13:21:36Z
2022-11-20T11:22:40Z,42.805,6.029,13.3010,4.60057,2470.646,2022-11-20T13:24:39Z
2022-11-20T11:25:43Z,42.805,6.029,13.3007,4.60053,2470.637,2022-11-20T13:27:42Z
2022-11-20T11:28:46Z,42.805,6.029,13.3006,4.60059,2470.646,2022-11-20T13:30:45Z
2022-11-20T11:31:50Z,42.805,6.029,13.3009,4.60062,2470.624,2022-11-20T13:33:48Z
2022-11-20T11:34:53Z,42.805,6.029,13.3011,4.60057,2470.624,2022-11-20T13:36:51Z
2022-11-20T11:37:56Z,42.805,6.029,13.3010,4.60055,2470.646,2022-11-20T13:39:54Z
2022-11-20T11:40:59Z,42.805,6.029,13.3010,4.60066,2470.624,2022-11-20T13:42:57Z
2022-11-20T11:44:02Z,42.805,6.029,13.3004,4.60060,2470.646,2022-11-20T13:46:00Z
2022-11-20T11:47:05Z,42.805,6.029,13.3010,4.60059,2470.684,2022-11-20T13:49:04Z
2022-11-20T11:50:08Z,42.805,6.029,13.3004,4.60056,2470.661,2022-11-20T13:52:07Z
2022-11-20T11:53:11Z,42.805,6.029,13.3010,4.60058,2470.646,2022-11-20T13:55:10Z
2022-11-20T11:56:14Z,42.805,6.029,13.3006,4.60061,2470.661,2022-11-20T13:58:13Z
2022-11-20T11:59:17Z,42.805,6.029,13.3007,4.60061,2470.661,2022-11-20T14:01:16Z
2022-11-20T12:02:20Z,42.805,6.029,13.3006,4.60058,2470.67,2022-11-20T14:04:19Z
2022-11-20T12:05:23Z,42.805,6.029,13.3008,4.60058,2470.624,2022-11-20T14:07:22Z
2022-11-20T12:08:27Z,42.805,6.029,13.3007,4.60055,2470.646,2022-11-20T14:10:25Z
2022-11-20T12:11:30Z,42.805,6.029,13.3008,4.60060,2470.693,2022-11-20T14:13:28Z
2022-11-20T12:14:33Z,42.805,6.029,13.3002,4.60054,2470.693,2022-11-20T14:16:31Z
2022-11-20T12:17:36Z,42.805,6.029,13.3008,4.60060,2470.646,2022-11-20T14:19:34Z
2022-11-20T12:20:39Z,42.805,6.029,13.3006,4.60060,2470.67,2022-11-20T14:22:37Z
2022-11-20T12:23:42Z,42.805,6.029,13.3009,4.60056,2470.67,2022-11-20T14:25:41Z
2022-11-20T12:26:45Z,42.805,6.029,13.3006,4.60061,2470.693,2022-11-20T14:28:44Z
2022-11-20T12:29:48Z,42.805,6.029,13.3005,4.60067,2470.661,2022-11-20T14:31:47Z
2022-11-20T12:32:51Z,42.805,6.029,13.3006,4.60062,2470.67,2022-11-20T14:34:50Z
2022-11-20T12:35:54Z,42.805,6.029,13.3006,4.60064,2470.661,2022-11-20T14:37:53Z
2022-11-20T12:38:57Z,42.805,6.029,13.3006,4.60062,2470.707,2022-11-20T14:40:56Z
2022-11-20T12:42:00Z,42.805,6.029,13.3009,4.60055,2470.693,2022-11-20T14:43:59Z
2022-11-20T12:45:04Z,42.805,6.029,13.3004,4.60060,2470.67,2022-11-20T14:47:02Z
2022-11-20T12:48:07Z,42.805,6.029,13.3004,4.60054,2470.707,2022-11-20T14:50:05Z
2022-11-20T12:51:10Z,42.805,6.029,13.3006,4.60055,2470.679,2022-11-20T14:53:08Z
2022-11-20T12:54:13Z,42.805,6.029,13.3006,4.60072,2470.707,2022-11-20T14:56:11Z
2022-11-20T12:57:16Z,42.805,6.029,13.3006,4.60061,2470.67,2022-11-20T14:59:14Z
2022-11-20T13:00:19Z,42.805,6.029,13.3007,4.60061,2470.693,2022-11-20T15:02:18Z
2022-11-20T13:03:22Z,42.805,6.029,13.3004,4.60059,2470.693,2022-11-20T15:05:21Z
2022-11-20T13:06:25Z,42.805,6.029,13.3010,4.60056,2470.717,2022-11-20T15:08:24Z
2022-11-20T13:09:28Z,42.805,6.029,13.3006,4.60056,2470.73,2022-11-20T15:11:27Z
2022-11-20T13:12:31Z,42.805,6.029,13.3008,4.60054,2470.67,2022-11-20T15:14:30Z
2022-11-20T13:15:34Z,42.805,6.029,13.3011,4.60054,2470.684,2022-11-20T15:17:33Z
2022-11-20T13:18:37Z,42.805,6.029,13.3007,4.60061,2470.693,2022-11-20T15:20:36Z
2022-11-20T13:21:41Z,42.805,6.029,13.3008,4.60055,2470.707,2022-11-20T15:23:39Z
2022-11-20T13:24:44Z,42.805,6.029,13.3004,4.60055,2470.707,2022-11-20T15:26:42Z
2022-11-20T13:27:47Z,42.805,6.029,13.3007,4.60054,2470.717,2022-11-20T15:29:45Z
2022-11-20T13:30:50Z,42.805,6.029,13.3006,4.60058,2470.707,2022-11-20T15:32:48Z
2022-11-20T13:33:53Z,42.805,6.029,13.3008,4.60068,2470.707,2022-11-20T15:35:51Z
2022-11-20T13:36:56Z,42.805,6.029,13.3007,4.60055,2470.717,2022-11-20T15:38:55Z
2022-11-20T13:39:59Z,42.805,6.029,13.3011,4.60057,2470.74,2022-11-20T15:41:58Z
2022-11-20T13:43:02Z,42.805,6.029,13.3010,4.60056,2470.707,2022-11-20T15:45:01Z
2022-11-20T13:46:05Z,42.805,6.029,13.3012,4.60075,2470.693,2022-11-20T15:48:04Z
2022-11-20T13:49:08Z,42.805,6.029,13.3009,4.60057,2470.73,2022-11-20T15:51:07Z
2022-11-20T13:52:11Z,42.805,6.029,13.3003,4.60059,2470.717,2022-11-20T15:54:10Z
2022-11-20T13:55:14Z,42.805,6.029,13.3006,4.60074,2470.717,2022-11-20T15:57:13Z
2022-11-20T13:58:18Z,42.805,6.029,13.3008,4.60069,2470.717,2022-11-20T16:00:16Z
2022-11-20T14:01:21Z,42.805,6.029,13.3004,4.60064,2470.717,2022-11-20T16:03:19Z
2022-11-20T14:04:24Z,42.805,6.029,13.3006,4.60064,2470.717,2022-11-20T16:06:22Z
2022-11-20T14:07:27Z,42.805,6.029,13.3006,4.60059,2470.717,2022-11-20T16:09:25Z
2022-11-20T14:10:30Z,42.805,6.029,13.3009,4.60069,2470.754,2022-11-20T16:12:28Z
2022-11-20T14:13:33Z,42.805,6.029,13.3006,4.60059,2470.717,2022-11-20T16:15:32Z
2022-11-20T14:16:36Z,42.805,6.029,13.3009,4.60067,2470.693,2022-11-20T16:18:35Z
2022-11-20T14:19:39Z,42.805,6.029,13.3005,4.60067,2470.717,2022-11-20T16:21:38Z
2022-11-20T14:22:42Z,42.805,6.029,13.3007,4.60069,2470.74,2022-11-20T16:24:41Z
2022-11-20T14:25:45Z,42.805,6.029,13.3008,4.60066,2470.693,2022-11-20T16:27:44Z
2022-11-20T14:28:48Z,42.805,6.029,13.3009,4.60071,2470.693,2022-11-20T16:30:47Z
2022-11-20T14:31:51Z,42.805,6.029,13.3009,4.60067,2470.717,2022-11-20T16:33:50Z
2022-11-20T14:34:55Z,42.805,6.029,13.3009,4.60064,2470.717,2022-11-20T16:36:53Z
2022-11-20T14:37:58Z,42.805,6.029,13.3006,4.60069,2470.73,2022-11-20T16:39:56Z
2022-11-20T14:41:01Z,42.805,6.029,13.3007,4.60062,2470.74,2022-11-20T16:42:59Z
2022-11-20T14:44:04Z,42.805,6.029,13.3006,4.60064,2470.73,2022-11-20T16:46:02Z
2022-11-20T14:47:07Z,42.805,6.029,13.3006,4.60064,2470.693,2022-11-20T16:49:05Z
2022-11-20T14:50:10Z,42.805,6.029,13.3006,4.60061,2470.717,2022-11-20T16:52:09Z
2022-11-20T14:53:13Z,42.805,6.029,13.3009,4.60062,2470.73,2022-11-20T16:55:12Z
2022-11-20T14:56:16Z,42.805,6.029,13.3006,4.60060,2470.754,2022-11-20T16:58:15Z
2022-11-20T14:59:19Z,42.805,6.029,13.3009,4.60060,2470.717,2022-11-20T17:01:18Z
2022-11-20T15:02:22Z,42.805,6.029,13.3010,4.60071,2470.717,2022-11-20T17:04:21Z